Weather in Wilmington

United States     39°44′45″N   75°32′50″W
В апреле 2022 года жителям России запретили посещать сайт meteo.paraplan.net по решению Генеральной прокуратуры. Аудитория сайта уменьшилась в 10 раз. Владельцы сайта не видят смысла в поддержке погодного сервера в таких условиях. Сайт будет закрыт в октябре.
temp.,
°C
wind,
m/s
gust,
m/s
humid.,
%
clouds,
%
prec.,
mm/h
press.,
hPa
HPBL,
m
4 october, tue
tue423:00+8n41387100 1.5 1021757
02:00+7n61494100 7.1 1020740
05:00+7n71590100 2.5 1017621
08:00+8n71594100 8.5 1016726
11:00+9n71493100 2.9 1016904
14:00+9n71393100 5.1 1014845
17:00+11n71495100 2.8 1013884
20:00+11n61594100 3.9 1013731
5 october, wed
wed523:00+12n61395100 1.3 1013686
02:00+12n61395100 2.4 1012634
05:00+12n51296100 0.9 1012591
08:00+13n51295100 1.1 1012633
11:00+13n51195100 0.3 1014605
14:00+14n5993100 0.4 1014664
17:00+14n499163 0.0 1014510
20:00+14n398998 0.0 1016474
6 october, thu
thu623:00+14n278870 0.0 1016226
02:00+12nnw22895 0.0 101631
05:00+11nw22835 0.0 101632
08:00+11nw127753 0.0 101752
11:00+18w1150100 0.0 1017434
14:00+21wsw2341100 0.0 1015952
17:00+20w2354100 0.0 1015378
20:00+16sw2272100 0.0 101634
7 october, fri
fri723:00+14sw247517 0.0 101587
02:00+13wsw25825 0.0 1015112
05:00+13wsw23810 0.0 101544
08:00+13wsw24755 0.0 101596
11:00+20wsw46525 0.0 1015549
14:00+23wsw57446 0.0 10131416
17:00+18nw6106483 0.1 1014740
20:00+13nw5117231 0.1 1018791
8 october, sat
sat823:00+10nnw511620 0.0 1020814
02:00+7nw39655 0.0 1022516
05:00+6nw38671 0.0 1023299
08:00+6nw39652 0.0 1024396
11:00+11nw46445 0.0 10251467
14:00+13wnw46395 0.0 10221665
17:00+14wnw47435 0.0 10211661
20:00+10wsw24590 0.0 102289